This demonstration page uses our WeatherBlox Daily Observations layout. Learn more.

Left ArrowRight Arrow

36.19886, -115.1175

Hourly Observations for March 13, 2017

Temp ( °F °C ) Dew Point ( °F °C ) Humidity (%) Winds ( mph kmh ) Pressure ( in mb ) Visibility ( mi km ) Precip ( " mm )
12:53 am 00:53 Clear 69 20.6 21 -6.1 16 16 NNW 8 13 30.08 1019 10 16 N/A
1:53 am 01:53 Clear 67 19.4 22 -5.6 18 18 NNE 7 11 30.09 1019 10 16 N/A
2:53 am 02:53 Clear 63 17.2 25 -3.9 24 24 N N/A 30.11 1020 10 16 N/A
3:53 am 03:53 Clear 62 16.7 25 -3.9 24 24 NW 5 7 30.10 1019 10 16 N/A
4:53 am 04:53 Clear 62 16.7 25 -3.9 24 24 W 10 17 30.11 1020 10 16 N/A
5:53 am 05:53 Clear 59 15 27 -2.8 29 29 NNW 5 7 30.12 1020 10 16 N/A
6:53 am 06:53 Clear 58 14.4 28 -2.2 32 32 N N/A 30.14 1021 10 16 N/A
7:53 am 07:53 Sunny 62 16.7 27 -2.8 26 26 WNW 6 9 30.15 1021 10 16 N/A
8:53 am 08:53 Sunny 65 18.3 29 -1.7 26 26 ESE 3 6 30.17 1022 10 16 N/A
9:53 am 09:53 Sunny 71 21.7 25 -3.9 18 18 NW 6 9 30.17 1022 10 16 N/A
10:53 am 10:53 Sunny 74 23.3 25 -3.9 16 16 VRB 3 6 30.16 1021 10 16 N/A
11:53 am 11:53 Sunny 76 24.4 24 -4.4 14 14 VRB 3 6 30.15 1021 10 16 N/A
12:53 pm 12:53 Sunny 78 25.6 25 -3.9 14 14 VRB 6 9 30.13 1020 10 16 N/A
1:53 pm 13:53 Sunny 80 26.7 26 -3.3 14 14 VRB 5 7 30.10 1019 10 16 N/A
2:53 pm 14:53 Sunny 81 27.2 26 -3.3 13 13 E 6 9 30.08 1019 10 16 N/A
3:53 pm 15:53 Sunny 81 27.2 25 -3.9 13 13 N N/A 30.05 1018 10 16 N/A
4:53 pm 16:53 Sunny 83 28.3 25 -3.9 12 12 E 3 6 30.04 1017 10 16 N/A
5:53 pm 17:53 Sunny 82 27.8 24 -4.4 12 12 N N/A 30.04 1017 10 16 N/A
6:53 pm 18:53 Clear 79 26.1 25 -3.9 14 14 N N/A 30.05 1018 10 16 N/A
7:53 pm 19:53 Clear 75 23.9 29 -1.7 18 18 N N/A 30.05 1018 10 16 N/A
8:53 pm 20:53 Clear 71 21.7 33 0.6 25 25 NW 7 11 30.07 1018 10 16 N/A
9:53 pm 21:53 Clear 69 20.6 34 1.1 27 27 WNW 6 9 30.08 1019 10 16 N/A
10:53 pm 22:53 Clear 65 18.3 34 1.1 32 32 NW 6 9 30.08 1019 10 16 N/A
11:53 pm 23:53 Clear 65 18.3 34 1.1 32 32 NNW 6 9 30.07 1018 10 16 N/A

Powered by AerisWeather